RADUGA 31 [-]

Last updated on June 24, 2019, 3:40 a.m. UTC

1 23010U 94012A   19173.56217567 -.00000090  00000-0  00000-0 0  9992
2 23010  14.9039   9.1055 0004741  13.9006 163.7046  1.00205388 92767
UTC
Height (km)
Latitude
Longitude
Inclination
Orbital Period
UTC large
Height (km)
Speed (km/s)
/
Latitude / Longitude
Inclination (degrees)
Orbital Period (minutes)
Azimuth
Elevation
Range (km)
Doppler Factor
iOS Compass Heading
iOS Angle

Next 30 passes for location: Hong Kong

Rise time Rise Azimuth (degrees) Set time Set Azimuth (degrees) Duration Max altitude (degrees)

No matching passes for this satellites